THOR ABLESTAR DEB, 405

Orbit data source: Space-Track

THOR ABLESTAR DEB, 405 is space debris in LEO originally from a launch on Thu, 29 Jun 1961 UTC launched from the Air Force Eastern Test Range (AFETR). Debris objects in space refer to the collection of defunct objects orbiting the Earth. Examples of debris include non-operational satellites, rocket bodies, and fragments generated from explosions, collisions, or faulty payload assembly.

Loading next visibility...
Identifier
405, 1961-015EE
Orbit
LEO
Country
Flag of USUS
Related business
Manufacturer
Unknown
Mission
Spacecraft
Bus & Motor
Unknown
Mass
Unknown
Launch date (UTC)
1961-06-29 (64 years ago)
Launch vehicle
Unknown
Launch site
Air Force Eastern Test Range (AFETR)
Object type
Payload
Rocket body
Debris
Shape & HBR
Unknown shape, 0.3 m
Radar Cross Section
Small (<0.1 m²)

Expand to show TLE details & history
Last TLE update: 11 hours ago

TLE from 11 hours ago
0 THOR ABLESTAR DEB
1 00405U 61015EE  25309.28667753  .00000251  00000-0  37758-3 0  9996
2 00405  66.8933 325.5748 0087753 329.8647 123.6366 13.66614154201556
Epoch: 2025-11-05T06:52Z
TLE epoch observation values (Epoch: 2025-11-05T06:52:48.938Z)
Latitude
66.61925°
Longitude
-81.44911°
Altitude
1,058.761 km
Speed
7.311 km/s
True Right ascension
04h 26m 03s
True Declination
66° 29' 56"
Sunlit
Object was in full shadow at epoch
Visualization orbit readout
Latitude
Unknown
Longitude
Unknown
Altitude
Unknown
Speed
Unknown
Apparent Right ascension
Unknown
Apparent Declination
Unknown
Sunlit
N/A
Visualization observer readout
Local Sidereal Time
14:22:02
Azimuth
Unknown
Elevation
Unknown
Doppler factor
Unknown
Orbital elements
Apogee altitude
1,074.988 km
Perigee altitude
945.319 km
Semi-major axis
7,388.29 km
Eccentricity
0.00878
Inclination
66.8933°
RAAN
325.5748°
Arg. of periapsis
329.8647°
True anomaly
124.46872°
Mean anomaly
123.6366°
Eccentric anomaly
124.05317°
Mean motion
3.41765 °/min
Orbital period
105.34 mins
BSTAR
0.00037758
Loading maneuver chart data...
Computing Atmospheric mass density...

Documentation

Showing up to 5 results
|